RH
30 31 31 30 30 28 27 26 25 26 27 31 33 36 40 43 45 45 45 45 44 43 42 41 41 40 39 36 32 29 24 21 19 17 16 15 15 15 15 15 15 14 12 10 8 5 6 9 14 18 21 32 54 79 86 77 65 56 50 45 38 29 21 15 12 8 5 4 3 2 3 1 4 8 20 62 102 101 97 101 99 98 99 99 100
31 30 29 27 26 24 24 24 24 26 28 32 35 38 44 48 49 48 47 47 46 44 43 42 42 41 37 34 29 24 21 18 17 16 16 16 16 16 17 16 15 14 12 9 7 5 5 11 19 23 25 30 47 75 89 81 69 60 54 49 42 32 23 16 12 9 5 4 4 3 3 2 3 8 17 50 91 101 99 101 99 97 99 100 100
31 28 26 23 22 21 21 23 24 26 29 31 35 39 45 49 50 50 49 47 46 45 45 44 42 39 34 29 24 20 18 16 16 16 17 17 18 18 18 18 15 13 12 8 6 6 5 14 26 28 25 26 41 72 91 85 73 65 60 54 46 36 25 16 12 9 6 4 4 4 4 3 2 6 14 34 67 92 101 100 97 96 99 102 101
30 27 25 22 21 20 20 21 24 26 30 33 36 42 47 51 52 52 51 49 49 49 47 45 41 36 30 24 20 17 16 17 17 17 19 19 19 20 19 17 16 13 10 8 6 5 6 17 32 36 27 21 34 68 91 87 76 69 66 59 50 40 28 17 12 9 7 5 4 4 4 4 2 4 11 22 40 70 94 98 96 96 99 105 103
30 28 25 23 21 20 20 22 25 28 32 36 41 47 51 54 54 54 54 54 55 52 47 43 37 31 26 22 18 17 17 18 19 19 20 21 21 20 20 17 16 13 8 7 6 5 8 17 32 41 33 18 27 64 91 89 80 74 71 65 54 44 31 19 12 9 7 5 5 5 4 4 3 2 7 18 28 51 81 95 97 97 100 107 102
27 25 22 21 20 21 22 25 29 33 37 42 47 52 55 56 56 56 58 59 58 52 44 38 32 27 24 21 19 18 20 19 20 22 21 23 22 20 20 17 15 12 8 7 5 5 10 15 31 46 41 23 22 57 89 90 82 79 75 71 60 49 36 21 12 9 7 5 5 6 6 5 4 3 5 16 26 41 69 91 99 98 101 106 100
24 21 19 19 20 24 27 30 35 38 43 48 53 57 58 59 59 60 62 62 58 48 39 32 27 25 22 20 20 19 21 21 21 24 23 23 23 21 20 18 16 12 8 7 4 6 8 14 35 51 44 25 20 52 86 90 85 83 79 75 66 53 39 24 13 9 7 6 5 6 7 7 6 6 5 12 24 37 59 83 95 98 101 106 100
23 20 19 20 22 27 31 35 39 42 47 53 57 59 59 60 60 62 64 63 57 46 36 29 24 23 21 19 20 20 22 24 25 26 25 24 23 21 20 17 16 12 9 8 5 6 6 11 36 56 51 28 18 48 83 89 87 85 83 80 71 57 43 27 14 9 7 6 6 6 7 8 7 8 8 11 19 33 51 71 86 94 98 103 102
22 21 20 21 25 30 35 39 42 47 53 58 61 61 60 61 61 64 65 62 56 46 35 28 23 22 22 20 21 23 25 27 28 28 26 26 24 22 20 17 15 12 10 8 5 6 6 10 32 57 59 35 19 47 80 88 88 86 84 84 77 62 46 31 16 8 7 6 6 6 7 8 8 9 12 12 15 26 42 57 71 83 89 95 101
22 21 21 23 27 33 38 41 45 52 60 64 66 66 64 64 65 67 66 61 54 44 33 27 24 24 23 24 25 27 29 30 30 30 28 27 26 23 21 17 15 12 10 8 6 7 7 12 31 53 57 39 27 51 80 88 90 87 84 86 82 69 51 35 19 8 7 7 6 7 7 9 9 8 11 13 14 19 30 43 55 68 79 88 97
22 21 22 24 30 36 39 43 49 57 66 71 72 71 70 70 71 70 66 57 47 37 29 25 24 25 26 27 29 30 32 32 32 32 30 29 27 24 21 17 15 12 10 9 7 7 7 11 28 43 47 43 42 58 81 90 91 88 85 86 86 75 57 40 23 10 7 7 6 7 7 9 10 9 9 11 13 15 20 28 38 51 66 78 88
21 22 24 27 32 38 41 46 54 64 72 77 77 76 76 76 75 71 61 49 41 31 25 25 26 28 29 30 32 32 32 34 34 34 32 32 30 26 22 18 15 12 10 9 6 7 8 8 21 35 44 51 55 64 82 91 91 91 88 87 89 80 63 47 29 13 8 7 7 7 7 9 10 10 9 8 11 13 15 19 24 35 49 63 76
22 24 27 32 36 40 45 51 61 72 80 82 82 79 79 79 74 66 52 40 34 28 25 27 29 31 32 33 33 33 34 35 36 36 35 34 32 28 23 18 15 13 10 9 7 7 9 8 18 35 47 58 61 66 83 91 90 93 91 88 92 86 69 54 35 17 9 7 7 7 7 9 10 11 10 8 9 10 13 15 18 24 32 44 60
25 28 33 37 41 45 50 60 73 83 86 85 84 82 80 75 66 56 44 33 29 27 28 30 32 34 34 34 34 34 36 38 38 38 36 35 32 29 24 18 15 13 11 10 8 8 9 9 15 29 47 63 65 67 82 91 91 94 94 91 95 91 75 59 41 22 11 7 7 7 8 9 10 11 11 9 8 9 11 13 14 18 22 28 40
29 34 39 42 46 51 60 75 87 90 89 87 84 80 72 65 57 49 40 33 30 30 31 33 34 35 34 34 35 35 37 39 39 38 36 34 33 30 24 19 15 13 11 10 9 9 9 11 15 25 46 65 68 69 80 90 93 95 97 96 97 94 80 63 45 27 14 8 6 7 7 8 9 11 12 11 9 8 8 11 13 14 17 20 24
36 42 47 50 54 63 77 89 93 91 89 85 78 69 62 56 51 46 41 36 34 34 35 36 35 35 34 34 35 36 37 38 38 37 36 34 33 30 26 21 16 13 12 10 10 9 9 12 16 24 45 64 71 74 79 86 93 97 100 99 99 97 84 66 48 30 17 10 7 7 7 8 9 11 13 13 11 9 7 8 11 12 13 17 19
46 53 58 63 71 81 90 94 92 89 83 74 65 58 54 50 47 45 42 39 38 38 38 37 36 35 34 34 34 35 35 36 36 35 34 34 33 31 27 23 18 14 12 11 10 9 10 13 15 23 41 60 76 81 79 84 92 97 101 101 100 99 88 69 51 33 20 11 7 6 7 7 9 11 14 14 12 10 8 7 9 11 11 12 15
61 68 72 80 87 92 93 91 86 79 68 60 55 52 49 47 45 43 41 40 38 38 36 35 34 33 32 32 32 32 32 33 33 32 32 33 33 32 29 25 20 15 12 12 11 10 11 12 15 25 38 57 80 88 82 83 90 96 102 102 100 101 90 71 52 34 21 13 8 6 6 7 8 10 13 15 14 12 10 8 8 10 12 11 12
77 82 86 92 94 92 86 78 70 61 55 52 49 47 45 42 40 38 37 36 34 33 33 32 31 30 30 29 29 29 29 30 31 31 31 32 33 33 31 26 21 16 14 12 12 11 11 12 15 25 43 66 86 91 84 83 88 96 103 103 101 101 92 73 53 35 21 13 9 7 6 7 8 9 13 15 16 14 11 9 9 9 11 12 11
89 92 94 93 87 78 68 60 55 51 48 46 43 41 38 36 34 33 33 33 32 32 33 33 33 33 31 30 29 28 28 28 29 30 30 32 33 34 32 28 22 17 15 13 13 12 12 14 15 24 51 79 90 91 88 84 88 96 102 104 102 101 94 76 54 35 20 13 10 7 7 7 7 9 13 16 17 16 13 10 9 10 11 13 12
97 95 88 78 67 59 55 51 49 46 42 38 34 30 26 23 21 19 19 19 20 21 23 25 29 31 33 35 35 35 33 31 30 29 30 31 33 34 32 29 23 18 16 15 14 13 13 14 14 25 61 90 94 93 91 84 89 98 102 103 104 101 95 78 55 34 19 13 11 7 7 7 7 9 12 16 19 17 15 12 9 10 12 13 14
89 78 67 59 54 52 50 45 39 33 28 23 19 15 11 10 8 8 8 8 8 9 10 12 14 17 22 27 32 37 39 39 35 32 31 30 31 33 32 29 25 19 17 16 15 14 14 15 15 27 64 96 101 97 91 84 91 100 100 101 103 101 95 79 56 35 20 14 11 8 7 7 6 10 12 16 20 19 17 14 10 10 13 15 15
66 58 54 52 50 45 38 29 22 17 13 10 8 7 7 6 6 6 6 5 6 6 5 6 6 7 9 13 20 29 36 41 41 37 34 32 31 31 31 30 26 21 19 17 17 16 14 15 17 32 69 101 106 98 89 85 92 100 100 100 101 100 96 82 57 35 21 15 11 8 7 7 7 10 13 16 21 22 19 15 11 10 13 17 18
55 53 51 44 36 27 19 14 10 8 7 7 6 6 6 6 5 5 5 5 5 4 4 5 5 5 5 7 12 20 29 37 42 42 39 34 31 30 30 29 26 23 21 19 18 17 16 15 18 40 78 104 106 97 88 86 92 98 100 100 100 101 98 84 58 36 22 15 11 8 7 7 8 10 12 15 21 24 22 17 13 10 12 18 22
53 47 37 26 18 13 9 8 7 7 7 7 6 6 5 5 5 5 4 5 4 4 4 4 5 5 6 7 9 15 25 34 41 46 44 38 34 31 30 29 27 25 22 21 20 17 18 15 17 47 86 102 104 100 89 86 93 98 100 100 101 102 99 85 60 36 21 14 11 9 7 6 8 10 12 15 20 25 25 20 14 11 11 18 26
40 29 19 13 10 8 8 7 7 7 6 6 6 5 5 5 5 4 5 5 5 6 6 6 7 8 8 9 9 13 23 35 45 50 48 44 38 33 30 29 28 27 23 23 22 18 19 16 18 55 96 102 103 105 92 85 93 98 100 100 101 103 100 87 62 34 20 15 11 9 7 7 8 10 12 15 20 26 27 23 17 12 11 17 26
21 14 11 10 9 8 8 7 7 6 6 5 5 5 5 5 4 5 5 6 8 9 10 10 10 10 10 11 12 13 22 38 53 59 56 50 42 35 32 30 29 28 25 24 23 19 20 17 22 63 102 102 102 106 94 86 94 99 99 100 102 103 100 88 62 32 18 15 11 8 7 7 8 9 12 16 20 26 29 25 19 13 12 15 24
12 10 10 9 8 8 7 7 6 6 5 5 5 4 5 4 4 6 7 10 12 13 13 13 11 11 11 11 13 13 21 42 65 73 66 56 46 37 33 31 30 29 27 26 24 21 19 18 33 72 101 101 102 105 95 88 93 99 99 100 103 103 99 87 59 30 18 15 11 8 7 6 7 8 12 16 21 27 30 27 22 16 12 14 22
11 10 10 9 8 8 7 6 6 5 5 5 4 5 5 4 5 8 12 16 17 17 18 15 11 11 10 13 17 15 21 48 80 91 80 62 50 41 35 32 32 30 29 28 25 22 21 23 45 82 102 102 104 105 96 89 92 97 100 102 105 104 100 87 58 31 21 15 10 8 7 6 7 7 11 17 23 28 32 30 24 19 15 13 19
11 11 10 9 8 7 6 5 5 5 4 4 4 4 4 6 10 15 19 22 23 25 23 17 13 12 13 19 22 20 33 67 97 106 94 72 54 44 37 34 34 32 31 29 25 23 27 37 61 91 106 104 103 103 97 91 92 98 101 103 105 105 101 86 58 34 23 15 9 8 7 6 7 7 10 17 25 30 33 32 26 20 17 15 17
12 11 9 8 7 6 6 5 4 4 4 4 5 5 8 13 19 23 26 28 31 34 29 21 16 14 19 26 23 28 59 91 103 107 102 79 56 47 41 37 36 34 31 31 26 27 45 67 85 100 107 104 101 101 97 94 96 99 101 103 105 106 102 84 56 35 23 14 10 8 7 6 6 7 10 16 26 33 35 34 29 23 19 17 16
11 10 9 7 6 6 5 4 4 4 4 4 6 10 16 22 26 29 33 36 40 41 36 32 28 24 28 29 24 43 83 102 99 106 106 82 57 49 45 41 39 36 33 31 27 38 69 94 100 103 105 103 101 100 96 96 100 100 101 104 104 104 101 81 52 34 22 14 10 8 7 7 6 7 10 16 26 36 38 36 33 26 22 20 18
11 9 8 7 6 5 4 4 4 4 5 7 12 19 25 29 33 36 39 43 48 49 45 44 47 50 48 38 37 65 98 102 97 106 107 83 60 54 51 47 43 38 37 34 33 53 87 102 100 103 105 103 102 98 92 94 100 101 102 103 102 103 101 78 49 32 22 13 10 9 7 7 6 7 10 16 26 37 41 39 35 30 25 22 22
10 8 7 6 5 4 4 4 4 5 8 13 20 27 31 35 41 44 47 53 58 60 58 56 62 73 69 57 65 89 102 100 98 105 105 86 64 61 61 54 47 43 41 43 46 66 93 102 100 103 103 103 104 98 91 94 101 102 103 102 102 105 99 73 45 31 21 13 10 9 8 8 7 7 11 17 25 36 43 42 38 34 29 24 25
9 8 7 5 4 4 4 4 5 8 13 19 26 32 35 40 47 53 59 67 72 75 76 70 70 81 81 75 87 100 100 99 100 102 105 91 71 71 71 59 53 52 51 56 64 76 92 100 101 101 100 102 104 97 92 97 102 102 102 102 103 106 96 68 42 29 19 13 10 8 8 8 7 7 11 17 25 35 43 45 42 38 33 28 25
9 7 6 5 4 4 4 5 6 9 15 21 28 35 39 44 51 58 66 76 84 90 92 82 74 81 84 83 94 101 99 100 100 100 106 97 79 79 78 63 59 64 66 73 83 88 93 98 100 101 101 101 101 97 96 100 102 101 102 102 103 105 93 64 40 28 19 12 10 9 9 9 8 8 10 16 25 36 44 48 46 42 38 33 29
8 6 5 5 5 5 5 5 7 10 15 23 31 36 41 45 52 59 68 78 88 96 99 94 84 81 82 82 90 99 100 100 99 100 104 99 88 85 81 70 66 71 79 89 97 99 99 98 98 101 101 100 99 97 98 101 102 101 102 102 103 103 89 60 37 27 19 12 9 9 10 9 8 8 10 14 24 36 45 49 49 47 44 40 35
8 6 5 5 5 5 6 7 8 12 16 23 31 37 42 48 54 63 71 80 90 97 99 100 93 82 79 81 85 93 100 101 98 101 104 99 92 89 85 76 73 80 91 98 100 102 102 100 100 101 101 101 99 97 99 103 102 101 103 102 103 102 84 54 36 28 18 11 9 10 10 9 7 8 9 13 22 36 47 52 52 50 49 47 42
8 6 5 5 6 6 7 9 11 12 14 20 29 37 45 53 59 68 76 83 93 100 100 102 99 85 75 78 81 85 96 102 99 100 103 99 93 91 88 82 83 92 100 100 99 100 100 100 101 101 100 101 99 97 100 103 102 102 103 102 104 101 77 48 34 27 17 11 11 11 10 9 7 8 9 13 23 38 52 59 57 53 51 51 48
7 6 5 6 7 8 9 10 11 13 14 19 27 35 45 55 62 68 76 84 92 100 100 100 104 94 75 71 77 80 88 99 101 100 101 98 93 92 90 88 93 99 101 100 100 100 100 100 100 100 100 101 100 98 100 102 102 102 103 103 105 98 72 44 32 25 17 14 14 11 10 8 8 8 10 17 28 40 54 64 63 58 55 54 51
7 7 6 7 9 10 11 12 14 15 17 18 24 31 40 51 60 65 73 83 90 98 100 98 103 102 85 70 70 73 77 90 99 100 99 95 92 93 93 93 98 101 100 100 100 100 100 100 100 100 101 100 100 99 100 101 101 101 102 105 106 96 69 42 29 23 20 18 15 11 9 8 8 8 10 17 26 36 48 60 65 66 63 58 54
8 7 8 9 10 11 12 14 16 17 18 18 21 26 33 44 58 64 70 79 87 94 100 99 100 106 97 77 67 66 69 79 91 95 95 92 91 95 97 98 100 101 99 100 101 100 100 100 99 100 101 100 100 100 100 100 100 101 102 104 105 94 65 37 26 24 22 20 15 10 9 8 8 8 10 16 24 32 41 52 63 71 73 69 63
8 9 10 10 11 12 14 17 18 19 20 20 19 21 25 36 53 64 69 75 82 89 97 100 99 103 103 88 71 65 66 73 83 87 89 91 94 97 99 100 101 100 100 100 100 100 100 100 100 100 100 101 100 99 100 101 101 102 102 101 103 92 60 33 27 28 25 20 13 9 9 8 8 9 11 16 25 33 40 49 62 72 77 80 78
10 11 12 13 14 15 17 19 23 23 23 23 21 19 20 26 40 57 67 72 77 83 92 99 99 100 103 96 82 73 70 71 77 83 86 91 97 99 100 101 100 100 100 100 100 100 100 100 100 100 100 100 99 98 100 103 104 104 101 100 102 90 57 33 30 29 24 17 12 10 9 8 8 10 13 19 27 36 44 53 61 68 73 80 84
14 15 17 18 19 20 21 23 27 28 28 28 26 23 21 20 25 39 56 69 75 78 85 95 100 99 101 100 91 83 79 76 75 79 84 90 98 101 100 100 100 100 100 100 100 100 100 100 100 100 100 100 99 99 100 102 104 104 101 101 102 89 59 38 33 28 20 15 12 11 10 8 8 11 15 22 31 40 49 55 60 65 69 74 78
18 19 20 22 23 24 25 26 27 29 29 30 29 28 26 24 21 24 37 56 71 76 78 87 97 100 100 101 98 92 88 84 78 77 83 91 98 101 100 99 100 100 100 100 100 100 100 100 100 100 100 100 99 100 100 100 101 103 101 101 102 90 63 42 31 24 18 16 13 11 10 9 9 11 16 25 35 45 53 59 64 67 69 70 72
24 25 26 28 29 29 29 28 27 28 28 28 29 29 29 28 26 22 21 33 55 72 76 79 90 99 100 101 104 101 94 90 85 82 87 94 98 100 100 100 100 100 100 100 100 100 100 100 100 100 100 100 100 100 100 100 100 100 100 101 101 90 66 42 28 22 19 17 14 12 10 9 9 12 20 30 41 50 58 62 65 67 67 68 70
31 34 34 35 35 35 33 31 30 28 28 28 28 29 29 28 28 27 22 19 32 57 73 76 82 94 100 101 105 105 97 91 92 92 93 96 99 100 100 100 100 100 100 100 100 101 100 100 100 100 100 100 100 100 100 99 99 99 100 102 101 90 68 44 29 23 21 17 14 12 11 9 9 12 19 28 39 49 58 64 67 70 72 74 74
39 40 41 41 42 41 39 36 34 31 30 30 30 30 30 28 27 28 28 22 18 33 59 74 78 87 97 101 104 104 95 88 93 98 96 95 98 100 100 100 100 100 100 100 100 100 100 100 100 100 100 100 101 101 99 99 99 99 100 101 101 93 75 52 33 25 21 18 15 13 11 10 10 12 17 25 35 46 57 67 73 76 77 78 79
46 46 47 47 48 47 45 42 38 35 33 32 32 31 30 29 26 25 26 27 21 18 36 61 74 81 91 99 104 102 92 85 89 96 96 94 95 98 98 99 100 100 100 100 101 100 100 101 100 100 100 101 102 101 98 97 99 100 100 101 101 96 82 60 40 28 23 20 17 14 12 10 10 12 17 25 35 46 58 68 74 76 76 75 75
52 52 52 52 52 51 49 45 40 37 36 35 34 33 30 26 25 23 22 25 26 19 20 40 64 77 84 93 102 103 96 90 91 93 94 94 94 94 95 97 99 100 100 100 100 101 102 103 101 100 100 101 102 102 98 97 99 100 99 100 101 98 86 66 45 32 26 23 19 16 13 11 10 12 16 22 32 44 57 67 73 75 75 74 73
Wind_Speed
29 30 31 32 32 34 35 36 37 38 40 41 42 43 45 46 48 49 49 51 52 54 55 56 57 58 59 60 60 60 61 61 62 62 63 63 63 64 64 65 65 65 66 67 68 69 68 66 63 59 57 57 56 56 57 56 54 53 52 51 49 49 49 49 48 48 49 47 48 53 59 70 79 86 102 115 111 102 97 93 90 88 88 89 91
30 32 33 34 35 36 37 39 40 41 43 44 44 45 47 48 49 50 51 52 54 55 57 58 59 59 59 60 60 61 61 62 63 63 64 64 64 64 64 65 65 65 66 66 68 68 68 65 61 58 56 56 56 55 56 55 53 52 52 51 50 49 48 48 48 47 48 47 46 48 52 61 73 80 92 112 119 111 100 94 91 88 88 88 89
31 33 35 36 37 38 40 41 42 43 44 46 47 47 49 50 51 52 53 54 56 57 58 59 59 59 60 60 60 61 62 62 63 64 64 64 64 65 64 64 64 65 65 66 67 68 67 64 60 57 56 56 55 54 54 54 53 52 52 51 50 49 48 48 47 47 46 46 44 44 48 53 64 75 84 100 118 121 111 98 92 89 90 91 90
32 34 36 38 40 41 42 43 43 44 46 47 48 49 50 52 53 54 55 56 57 58 59 60 60 59 60 60 61 61 62 63 64 64 65 65 65 65 64 64 64 64 65 66 66 67 66 63 59 56 55 55 55 53 53 53 52 51 51 51 51 49 48 48 47 46 45 45 44 43 44 48 56 69 78 89 106 121 122 110 98 92 92 95 94
34 36 39 41 42 43 44 45 45 46 47 48 49 51 52 53 54 55 56 57 58 59 60 60 60 60 60 61 61 62 63 64 64 65 65 65 65 65 64 63 63 63 64 66 66 66 65 61 59 56 54 54 54 52 52 52 51 50 50 50 50 49 48 47 47 45 44 44 44 42 42 44 51 61 71 81 94 110 123 120 108 98 93 96 100
38 40 41 43 44 45 45 46 47 48 49 50 51 52 53 54 55 56 57 57 58 59 60 60 61 61 61 62 63 63 64 65 65 65 65 65 65 64 63 63 63 63 63 65 65 65 64 61 58 55 54 54 53 51 51 51 51 49 49 49 49 49 48 47 46 45 43 43 42 41 40 40 45 54 63 73 86 101 116 122 115 104 95 96 102
41 42 43 45 46 46 47 48 50 51 52 53 54 55 56 56 57 58 58 58 58 59 60 60 61 62 62 63 64 64 65 65 65 65 65 65 64 63 63 62 62 62 63 64 65 64 63 61 58 55 54 54 53 51 50 50 50 49 48 48 48 48 47 46 46 45 43 42 41 40 39 38 40 47 55 63 76 93 110 119 117 110 102 97 99
44 45 45 46 48 49 50 51 53 54 55 56 57 58 59 59 60 60 60 59 60 60 60 61 61 62 63 64 64 65 65 65 65 65 65 65 64 63 62 62 62 62 63 64 63 63 62 60 58 56 55 55 52 50 49 49 49 49 47 47 48 47 46 45 45 44 43 41 41 40 39 38 37 40 46 54 65 83 101 113 117 115 110 103 98
46 47 47 48 49 51 52 53 55 57 58 60 61 62 62 62 62 62 62 62 62 62 61 62 63 63 64 64 65 65 65 65 66 65 65 65 64 63 62 61 62 62 63 63 63 62 61 59 57 56 56 55 52 50 49 48 48 48 47 46 47 46 44 44 43 43 42 41 40 40 39 37 37 37 40 46 55 72 88 101 112 116 115 112 106
49 48 49 50 51 52 54 55 57 58 60 62 64 64 65 64 64 64 64 64 63 63 63 63 64 65 65 65 65 66 66 66 66 66 65 65 64 63 61 61 61 62 63 64 63 61 60 58 56 56 56 54 51 49 48 48 48 48 46 46 46 46 44 42 42 42 41 40 40 39 39 38 36 36 37 40 47 62 77 88 101 111 116 117 115
50 50 50 51 52 53 55 56 58 60 62 64 66 67 66 66 66 65 64 64 64 64 64 65 65 66 66 66 66 66 67 67 67 66 66 65 65 63 62 61 61 63 64 64 64 62 60 58 56 55 55 53 50 49 48 47 47 47 46 45 46 45 43 41 41 41 40 39 39 38 39 38 37 36 36 38 42 53 67 77 88 100 111 117 118
52 52 53 53 54 55 56 57 59 61 63 66 68 68 68 67 67 66 65 65 65 65 65 66 66 66 67 67 67 67 67 67 67 67 67 66 65 64 63 62 62 63 64 64 64 63 61 58 55 53 52 51 50 48 47 47 47 47 46 44 45 45 43 41 39 39 39 38 38 38 38 39 38 37 36 36 39 46 56 67 78 89 101 110 118
55 55 55 56 56 57 58 59 61 63 65 67 68 68 68 67 67 66 65 66 66 66 67 67 67 67 68 68 68 68 68 68 68 68 68 67 66 64 63 62 62 62 63 64 64 63 61 58 55 52 49 49 50 48 47 46 46 47 45 44 44 45 43 41 39 38 38 37 37 36 36 38 39 38 36 35 37 41 48 57 68 79 89 98 111
57 57 58 58 58 59 60 61 63 65 67 68 68 68 67 67 67 66 66 67 68 68 68 69 69 69 69 69 69 70 70 69 69 69 68 68 67 65 64 63 63 63 63 64 64 63 61 58 56 52 49 49 49 48 47 46 45 46 45 43 44 44 43 41 39 38 37 37 36 36 35 36 38 38 37 36 36 38 44 50 59 69 79 86 97
59 59 59 60 60 61 62 63 65 67 68 68 68 68 67 67 67 67 67 68 69 70 70 70 70 71 71 71 71 72 72 71 70 70 69 68 67 65 64 63 63 63 63 63 63 63 61 58 56 52 49 49 49 48 47 46 45 45 44 43 43 44 43 41 39 37 37 36 35 35 35 35 37 38 38 37 36 36 40 46 52 61 71 78 84
60 60 61 61 62 63 64 66 67 68 68 68 68 68 67 67 67 68 68 69 70 71 72 72 73 73 73 73 73 74 73 73 71 70 69 68 67 65 64 64 63 63 63 63 63 62 61 57 55 53 50 49 50 48 47 46 45 45 43 42 42 43 42 41 39 37 37 36 35 34 34 34 35 37 38 38 37 36 37 41 48 55 63 71 77
61 61 62 63 64 65 66 68 69 69 69 69 68 68 69 69 69 70 70 71 73 74 75 75 76 76 76 76 76 76 75 74 73 71 70 69 67 65 65 64 63 63 63 63 62 62 61 57 55 54 51 50 50 48 46 46 45 44 43 42 42 42 42 41 39 37 37 36 35 34 34 34 35 36 37 37 37 37 36 37 43 50 57 65 71
61 63 64 64 66 67 68 69 69 70 70 70 69 70 70 71 72 72 73 74 76 77 77 78 78 79 79 79 79 79 78 77 75 73 71 69 67 66 65 64 63 63 63 62 61 61 60 57 55 53 51 51 50 48 46 45 44 43 42 41 41 41 41 40 38 37 37 36 35 34 33 34 35 35 36 37 37 37 36 37 38 44 52 59 65
63 65 66 67 68 69 70 70 70 71 71 71 71 72 72 73 74 75 76 77 78 79 80 81 81 81 81 82 81 81 80 78 76 74 72 70 68 66 66 65 64 63 62 62 61 60 59 57 54 51 50 50 50 48 46 45 44 43 41 41 41 41 40 40 38 37 36 36 35 34 33 34 34 35 35 36 37 37 37 37 37 40 46 53 60
66 67 68 69 70 71 71 71 71 72 72 73 74 74 75 76 77 78 79 80 81 82 83 84 84 84 84 83 83 82 81 79 77 75 72 70 68 66 65 65 64 62 62 61 60 59 59 57 54 51 49 49 49 48 45 44 43 42 41 41 41 40 40 39 38 37 36 35 35 34 33 33 34 34 34 35 36 37 37 37 37 38 41 47 54
68 69 70 71 71 71 72 73 73 74 75 76 78 79 80 82 83 84 85 86 87 87 88 88 87 87 86 85 84 83 82 79 77 74 72 69 67 66 65 64 63 62 61 60 59 58 58 56 54 51 49 49 49 47 44 43 42 42 41 40 40 39 39 39 38 36 36 35 34 34 33 33 34 34 33 35 36 37 37 37 37 38 40 43 49
68 69 70 71 72 72 73 74 76 77 79 81 83 85 87 88 89 89 89 89 89 88 89 89 89 89 88 87 86 84 81 79 76 73 71 68 66 65 65 64 63 61 61 59 58 57 56 55 53 51 49 49 48 46 44 42 42 41 40 40 39 39 39 38 37 36 35 34 34 34 34 33 33 33 33 34 36 36 36 36 37 38 39 41 45
69 70 71 72 73 75 76 77 79 82 84 86 88 89 90 90 89 89 88 87 87 87 87 88 88 88 88 87 86 84 82 78 75 72 70 67 65 65 64 63 62 61 60 58 57 56 55 53 52 50 48 47 46 45 44 42 41 41 39 39 39 38 38 38 37 36 35 34 33 34 34 34 33 33 34 35 35 35 35 36 36 37 38 40 43
70 72 73 74 76 78 80 82 85 87 88 89 89 89 88 88 88 89 89 89 90 90 90 90 90 90 88 87 85 83 81 78 74 71 68 66 64 64 63 62 61 60 58 57 55 55 53 52 51 49 47 47 45 44 43 42 41 40 39 39 39 38 37 37 37 36 35 33 33 33 34 34 33 33 34 35 35 35 35 35 35 35 37 39 41
72 74 75 78 80 83 85 87 88 89 88 88 88 88 88 89 90 91 93 94 94 94 94 94 93 92 91 88 86 82 79 76 73 69 67 64 63 62 62 61 60 58 56 55 54 53 51 50 50 48 47 46 45 44 43 42 41 40 39 39 38 37 37 37 37 36 34 33 33 33 34 34 34 33 34 35 35 34 34 34 34 34 35 37 39
75 77 79 81 84 86 87 88 88 87 87 87 88 89 91 91 92 94 96 97 97 97 97 97 96 94 92 89 85 81 77 74 70 67 64 62 61 60 60 60 58 56 54 53 52 51 49 48 48 47 45 45 44 43 42 41 41 40 39 38 38 37 36 37 37 35 34 33 32 32 34 34 34 34 34 34 34 34 34 33 33 33 34 36 38
78 81 83 84 85 86 87 87 87 87 87 88 89 90 93 94 95 96 97 97 98 98 98 98 97 95 93 89 85 79 74 70 67 64 62 60 59 58 58 58 56 54 52 51 51 49 47 46 47 46 45 44 44 42 41 41 40 39 38 38 37 36 36 37 37 35 33 33 32 32 34 35 35 34 34 34 34 34 34 33 32 32 32 34 36
80 82 84 85 86 86 86 87 87 87 88 90 92 93 94 96 97 97 97 96 96 96 96 95 94 93 90 86 82 76 70 66 63 61 59 57 56 56 56 55 53 51 50 49 49 47 45 44 45 45 45 44 43 42 41 40 40 39 38 37 36 36 36 37 36 35 34 32 31 33 34 35 35 34 34 33 33 33 34 33 31 31 31 32 34
80 82 84 85 86 86 86 86 87 88 90 93 95 96 97 97 96 95 93 92 92 93 93 93 91 88 84 80 75 69 63 59 58 57 55 54 54 53 53 52 50 49 48 47 46 44 43 43 43 44 45 44 43 42 41 39 39 38 37 36 35 35 36 37 36 35 33 31 31 33 34 34 35 35 34 33 33 33 33 33 31 30 30 31 32
82 83 84 84 84 84 85 86 88 90 93 95 97 97 97 95 92 89 88 89 90 91 92 92 88 82 77 72 66 60 55 52 52 53 52 51 51 50 50 49 47 46 46 45 44 42 41 42 43 43 44 44 43 41 40 38 38 37 36 34 35 35 36 36 36 35 32 31 32 33 34 34 35 35 34 33 33 33 33 33 31 30 30 30 31
82 83 83 83 83 84 85 87 89 91 93 95 95 94 92 90 87 86 86 88 89 90 91 89 83 76 70 65 58 50 46 46 47 49 48 48 48 47 46 46 45 44 44 43 41 39 39 40 41 42 43 42 41 39 38 37 37 36 35 34 34 35 36 36 35 34 32 31 32 33 33 34 35 35 34 33 33 33 33 33 32 31 30 29 29
82 82 83 83 84 85 86 87 89 90 92 92 92 90 87 86 85 85 86 87 87 88 89 86 79 71 64 58 50 42 40 41 44 45 45 44 44 44 43 43 43 42 42 41 39 37 38 39 40 41 41 39 38 37 36 36 36 35 34 34 34 35 35 36 35 33 32 32 32 33 33 33 34 35 34 33 33 33 33 34 33 32 31 29 28
82 82 83 83 84 85 86 87 88 88 89 89 87 86 84 83 83 83 84 85 85 85 86 82 76 68 60 53 44 37 36 38 40 42 42 41 41 41 40 41 41 41 40 39 37 36 37 38 39 39 39 37 36 36 36 35 35 34 33 33 34 35 35 35 35 33 31 31 32 32 32 33 33 34 34 34 34 34 34 34 34 32 31 29 27
82 82 82 82 82 83 83 84 85 85 85 84 83 82 82 81 80 81 82 82 82 82 82 79 73 67 60 51 40 35 35 36 37 39 39 38 39 39 39 39 39 39 38 37 36 36 38 38 38 37 37 36 36 36 35 34 34 33 32 33 33 34 35 35 35 33 31 31 32 32 32 32 32 33 34 35 34 34 35 35 34 33 32 30 28
81 81 80 80 80 81 82 83 83 82 81 81 80 79 79 78 78 78 78 78 77 77 76 74 69 64 58 49 39 36 36 35 35 36 36 36 37 37 37 37 37 37 37 36 36 37 39 40 38 35 34 34 35 35 34 33 33 32 32 32 33 34 35 35 34 32 31 31 32 32 32 31 31 32 34 35 35 35 36 36 35 34 33 31 30
80 79 79 79 79 80 81 81 81 80 79 79 78 78 77 76 75 75 74 73 73 72 71 69 65 61 56 47 39 37 36 34 34 35 34 35 36 36 36 36 35 35 35 35 36 37 39 40 40 36 33 33 34 34 33 33 32 32 32 32 32 33 34 35 34 32 31 31 32 32 31 30 29 31 33 35 35 36 36 36 36 35 33 32 31
77 76 76 77 77 78 79 79 78 77 76 76 75 75 75 74 73 73 72 71 70 69 67 65 61 59 55 46 39 38 36 34 34 33 33 34 35 35 35 35 34 33 33 33 34 36 37 39 40 39 34 33 34 34 33 32 32 31 31 32 32 33 34 34 34 32 30 31 32 32 31 29 28 29 32 34 35 36 37 37 37 35 33 32 32
74 75 75 75 75 76 76 76 75 74 73 73 73 73 73 72 71 72 71 70 68 67 66 63 58 57 54 47 40 38 36 34 33 33 32 33 33 33 33 34 33 31 30 30 31 33 34 35 37 36 34 33 34 34 32 31 31 30 31 32 32 32 33 34 33 31 30 30 32 32 30 28 27 27 30 32 34 36 37 38 38 37 34 33 33
74 75 75 74 74 74 74 73 72 71 72 72 72 71 71 70 70 69 69 68 66 65 64 62 58 54 52 47 41 39 37 35 33 32 32 32 32 32 32 32 31 29 29 29 29 30 31 32 32 32 32 33 34 33 32 30 30 30 30 31 31 31 32 33 33 31 30 30 31 31 29 28 26 25 26 28 31 34 37 39 40 39 36 35 35
75 74 74 73 73 72 72 71 71 72 72 71 70 70 69 69 68 68 67 66 64 63 63 62 58 53 49 46 41 39 38 36 33 31 31 31 31 31 31 31 29 28 27 28 29 29 29 29 28 29 31 32 33 32 30 29 29 29 30 31 30 30 31 32 32 31 30 30 30 29 28 28 27 24 23 25 29 33 36 39 41 39 38 38 37
74 73 73 72 70 70 70 71 71 71 71 70 70 69 69 68 67 67 66 65 63 62 62 61 58 53 47 44 41 38 37 36 34 31 30 30 30 30 30 29 28 26 25 25 28 29 29 28 28 29 30 31 32 31 29 28 29 29 30 30 29 29 31 31 32 31 31 30 29 28 28 28 27 25 24 25 28 31 34 37 39 39 40 40 39
72 72 71 70 69 69 69 69 69 69 69 69 69 69 68 68 67 67 66 66 64 61 61 60 58 54 48 43 39 37 35 35 34 32 30 30 30 30 29 28 27 25 23 23 26 28 29 29 29 29 29 30 31 30 28 27 28 29 30 29 29 29 30 31 32 32 30 29 27 27 27 28 27 26 24 24 26 28 30 32 35 37 39 40 40
71 70 69 68 68 68 68 68 68 68 69 68 68 68 68 67 67 66 66 66 64 62 60 60 58 55 49 43 39 37 35 34 33 32 30 30 30 29 27 26 25 24 23 23 25 27 28 28 28 28 29 29 29 28 27 26 27 28 29 29 28 29 30 31 32 31 29 28 26 26 27 27 27 26 24 23 24 25 26 27 30 34 36 37 39
70 68 68 68 68 67 67 67 67 67 68 68 68 68 67 66 65 65 64 64 64 62 61 60 58 55 50 44 40 36 35 34 33 32 30 29 28 26 24 24 23 23 23 24 26 26 26 27 27 27 28 28 28 27 26 26 27 28 29 29 29 29 30 31 31 30 28 27 26 26 26 26 26 24 23 22 22 23 24 25 27 30 32 34 37
68 67 67 67 67 67 67 67 67 67 68 68 68 68 67 65 64 63 63 62 62 62 61 60 58 55 50 45 40 36 34 33 32 31 29 27 24 22 22 22 21 21 22 25 26 26 25 25 25 25 26 26 26 25 25 26 27 28 29 29 29 30 30 31 30 28 28 27 26 25 25 25 24 23 22 21 21 22 23 24 25 27 28 31 34
67 66 66 66 66 66 66 66 66 67 67 68 68 68 67 66 64 62 62 61 60 60 60 59 57 55 51 46 41 36 34 32 30 29 26 23 21 20 20 20 19 20 23 24 24 23 23 23 23 23 24 24 24 24 25 26 27 28 28 28 29 29 29 29 28 28 28 27 26 24 24 24 23 22 21 20 21 21 22 23 24 26 27 28 30
66 65 65 65 66 66 66 66 66 67 67 67 67 67 66 66 64 62 61 59 58 57 57 58 56 54 50 46 40 36 33 30 28 25 22 19 19 18 17 17 18 21 23 23 22 21 21 21 21 22 22 23 23 23 24 26 27 28 28 27 28 28 28 28 28 28 28 27 25 24 23 23 22 21 20 20 21 22 23 24 25 26 26 27 28
64 64 65 65 66 66 67 67 67 67 67 67 67 67 66 65 65 63 61 59 57 55 54 55 55 53 50 45 40 36 31 26 23 21 19 18 18 17 15 16 19 21 21 20 19 20 19 19 20 20 21 21 22 22 24 25 27 27 27 26 27 28 28 28 27 27 27 26 25 24 23 22 22 22 21 21 22 22 23 24 24 25 26 27 29
63 63 65 66 66 67 67 68 68 68 68 68 68 67 66 65 65 64 61 58 55 53 51 51 52 52 49 44 38 34 28 23 20 19 19 18 18 16 15 16 18 19 18 17 16 16 17 18 19 19 19 20 21 22 23 25 26 27 26 26 27 28 27 27 27 27 26 26 25 24 23 22 21 21 21 21 21 22 22 22 23 24 25 27 29
62 63 64 65 67 68 68 69 69 69 69 69 69 68 67 66 64 63 61 58 55 52 49 48 48 49 47 43 36 31 27 23 21 20 20 19 18 17 16 16 17 18 17 15 13 13 13 15 16 18 19 20 20 21 23 24 26 26 26 26 27 27 27 26 26 26 26 25 25 24 23 21 21 21 21 21 21 21 21 22 23 23 24 26 28
62 63 64 64 66 67 68 69 70 71 71 70 70 69 67 66 64 62 60 58 55 52 48 46 44 45 45 42 36 30 26 24 23 22 21 20 19 18 18 17 17 18 17 15 14 13 13 14 15 16 18 19 20 21 22 23 25 26 27 27 27 27 26 26 26 26 26 25 24 24 23 22 21 21 21 21 21 21 22 22 23 23 24 25 27
Wind_Direction
312 312 312 312 312 313 312 312 312 311 310 310 309 309 309 308 308 308 307 307 306 306 306 306 306 306 305 304 304 304 303 303 303 303 303 303 303 303 303 304 304 306 307 308 309 310 310 310 308 305 300 297 296 297 296 292 289 287 285 285 286 285 285 287 289 292 295 292 278 265 254 242 234 233 232 224 217 215 213 211 211 212 210 206 204
314 314 315 315 315 314 313 313 312 311 310 310 310 310 309 309 309 308 308 307 307 307 307 307 307 307 306 305 304 304 304 303 303 303 303 303 303 303 304 305 305 306 308 309 310 310 311 310 308 305 300 297 296 297 296 291 288 287 286 285 286 286 285 286 289 291 295 295 285 274 265 250 236 232 231 226 220 217 215 212 211 213 214 211 206
315 315 315 316 316 315 314 312 311 311 310 310 310 309 309 309 309 309 309 308 308 308 307 308 307 307 306 305 304 304 304 304 303 303 303 303 303 304 304 305 306 307 309 310 310 311 311 310 307 304 301 297 295 296 295 291 288 287 286 286 287 287 286 286 289 291 294 296 290 280 272 259 242 233 231 229 225 221 218 215 214 214 214 214 211
314 315 316 316 316 315 313 312 311 311 310 310 310 309 309 310 310 310 310 309 309 308 308 308 307 306 305 305 304 304 304 303 303 303 304 304 304 304 305 306 307 309 310 311 311 310 310 309 306 303 300 297 295 296 295 290 287 286 285 286 288 288 288 287 289 292 294 296 293 284 275 267 251 237 231 230 228 225 221 218 218 217 214 213 213
316 316 316 316 315 314 313 312 311 311 311 310 310 310 310 311 310 310 310 309 309 309 308 308 307 306 305 305 304 304 303 303 303 304 304 304 304 305 305 306 308 310 311 311 311 310 310 309 306 302 300 297 294 295 294 289 286 285 285 286 287 288 288 288 289 291 294 296 294 287 279 271 258 244 235 231 229 227 224 221 220 219 215 212 213
317 317 316 316 315 314 313 313 312 312 312 312 312 312 311 311 310 310 310 309 309 308 307 307 306 306 305 304 304 303 303 303 303 304 304 304 304 305 306 307 309 311 312 312 311 311 309 308 305 302 300 298 294 293 293 289 286 284 284 285 286 288 289 288 289 291 293 295 294 288 281 275 265 251 241 234 230 227 225 223 221 220 217 212 212
318 318 317 316 315 314 314 314 314 314 314 314 313 312 312 311 311 311 311 310 308 307 306 306 306 305 305 304 304 303 303 303 303 304 304 304 304 305 306 308 309 311 312 312 311 310 309 307 304 301 300 298 294 292 292 288 285 283 283 284 285 287 288 289 290 291 293 294 294 290 282 277 271 259 248 240 232 227 225 224 223 221 218 214 212
318 318 318 317 316 315 316 315 315 315 315 314 314 313 313 312 312 311 311 309 308 307 306 305 305 304 304 304 303 303 303 303 304 304 303 304 304 305 307 308 310 311 312 312 311 310 308 306 302 299 299 298 293 290 291 287 283 283 282 282 284 285 287 288 290 291 292 293 293 290 284 277 272 265 256 247 237 229 226 225 225 222 220 218 215
318 319 319 317 316 316 316 316 315 315 315 315 314 314 313 312 312 311 310 309 307 306 306 305 304 304 303 303 302 303 303 304 304 304 303 304 304 305 307 308 309 310 311 311 311 310 308 305 301 298 297 297 293 289 289 286 282 281 280 280 282 284 285 287 289 290 291 292 292 290 286 279 273 268 262 255 243 233 229 228 227 225 222 221 219
317 318 318 316 315 315 315 315 315 314 314 314 314 313 312 312 311 310 309 308 307 306 305 304 304 303 303 302 303 303 304 304 304 304 304 304 304 305 307 308 309 310 310 311 311 310 308 305 301 297 296 295 291 288 288 285 282 281 279 279 281 282 283 285 287 289 290 290 291 290 287 281 275 270 264 260 250 238 233 231 230 228 225 223 222
316 317 316 314 314 314 315 315 314 313 312 312 312 312 311 311 310 309 308 307 306 305 304 304 303 303 302 302 303 304 304 304 304 304 303 304 304 305 306 307 308 309 309 310 310 310 308 305 300 296 294 292 290 288 287 284 281 280 279 278 279 280 281 283 285 288 289 288 289 289 287 283 278 273 267 262 255 245 238 235 233 230 228 225 223
316 316 315 314 314 314 313 313 311 311 311 311 311 311 310 310 309 308 307 306 305 304 303 303 303 302 302 303 303 304 304 304 304 303 303 303 304 304 305 306 307 308 308 309 309 309 308 305 300 296 292 289 288 287 286 284 280 280 279 277 277 279 279 281 283 285 287 287 287 287 287 284 279 275 271 265 258 250 243 239 236 233 230 229 225
316 316 315 314 313 312 312 311 310 310 310 311 311 310 309 309 308 307 306 305 304 303 303 303 303 303 303 303 303 304 304 304 304 303 303 303 303 304 304 305 305 306 307 308 309 308 308 305 300 295 290 286 287 287 285 283 280 279 279 276 276 277 278 279 281 283 285 285 285 284 284 283 280 276 272 268 261 254 247 243 239 235 233 232 229
315 315 314 313 312 311 310 309 309 310 310 311 310 310 309 308 308 307 306 304 304 303 303 303 303 303 303 303 303 303 303 304 303 302 302 302 302 303 303 303 303 304 306 307 308 308 307 304 300 294 288 284 285 286 285 283 280 279 278 275 275 276 276 277 279 281 283 284 284 282 281 280 279 276 273 269 265 258 251 246 242 238 236 234 232
315 314 313 311 310 309 309 309 309 310 311 311 311 310 309 308 307 306 305 304 303 303 303 303 303 303 303 303 303 303 303 303 302 302 301 301 301 301 301 301 302 303 304 305 306 306 306 304 300 293 286 282 283 284 284 283 281 279 277 274 274 274 275 276 277 279 281 282 283 281 280 279 277 275 273 270 266 261 255 249 245 241 238 236 235
313 312 310 309 308 308 308 309 310 311 312 312 311 310 309 308 307 306 305 304 303 303 303 303 303 303 303 303 302 302 302 302 301 300 299 299 299 300 299 299 300 301 302 304 305 305 305 303 299 292 284 281 282 282 282 282 280 279 276 273 273 273 273 274 276 277 279 281 282 281 278 277 276 274 272 271 269 263 258 253 248 244 240 238 236
311 309 307 307 307 307 309 310 312 313 312 312 311 310 309 308 307 306 305 304 303 303 303 303 303 302 302 302 301 301 301 300 299 299 298 298 298 298 297 298 298 299 301 302 303 304 303 302 299 291 284 280 280 281 280 280 280 279 276 272 271 272 272 272 274 276 278 280 281 280 278 276 275 273 270 270 270 267 261 256 250 247 243 239 237
307 306 306 307 308 309 311 313 313 313 312 312 311 310 309 308 307 306 305 305 304 303 303 303 303 302 302 301 300 299 299 298 297 297 297 296 296 296 296 296 297 297 299 300 302 303 302 301 298 291 284 279 278 280 279 278 278 278 275 271 270 270 270 271 272 274 277 279 280 279 278 276 274 272 269 268 268 269 266 260 253 248 245 241 238
306 307 308 310 311 313 314 314 314 313 312 311 311 310 309 308 307 306 306 305 304 303 303 302 301 301 300 299 298 297 296 296 295 295 295 295 295 294 294 295 295 296 297 298 300 301 300 299 297 292 284 279 277 279 278 275 277 277 273 270 268 268 269 269 270 272 275 277 279 279 277 275 273 271 268 266 266 267 268 265 258 251 247 243 240
309 310 312 313 315 315 315 314 313 312 312 311 310 309 308 307 307 306 305 304 303 302 301 300 299 298 297 296 295 294 294 293 293 293 293 293 293 293 293 293 293 294 295 296 298 300 299 298 296 291 283 277 278 278 276 274 275 276 272 268 267 267 267 267 268 270 273 276 277 278 277 274 272 271 268 265 264 264 266 266 263 256 249 246 242
312 314 315 316 316 315 314 313 312 312 311 310 309 309 308 307 307 306 305 304 303 301 300 298 297 295 294 293 292 292 292 291 291 291 291 291 291 291 291 291 292 292 293 294 296 298 298 296 295 289 280 276 277 277 273 273 275 275 271 267 266 266 265 265 266 268 270 274 276 277 276 274 272 270 267 264 262 262 264 265 265 260 253 248 245
315 316 316 315 314 313 312 312 312 312 311 311 310 310 309 309 308 307 306 304 303 301 299 298 296 295 293 292 291 290 289 289 289 289 289 289 289 289 289 290 290 291 292 293 294 296 297 294 293 288 278 275 276 274 273 272 273 274 270 265 264 264 263 263 264 266 268 272 275 276 275 274 271 269 266 263 260 260 263 264 265 262 257 252 248
315 315 314 313 313 313 313 313 313 312 312 312 311 311 311 310 309 308 306 305 304 302 301 299 298 296 294 292 290 289 288 287 287 287 286 286 286 287 287 288 288 289 290 291 292 295 296 293 290 285 277 274 275 273 272 272 272 273 269 263 262 262 262 262 262 264 267 270 272 274 274 273 271 268 265 263 260 259 261 264 265 263 259 255 252
314 314 314 314 315 315 315 314 314 314 314 313 313 312 311 311 310 309 308 306 305 303 302 300 298 296 294 293 290 288 286 285 284 284 284 284 284 285 285 286 286 287 288 290 291 293 294 292 288 282 276 274 274 272 271 270 272 273 268 262 261 260 260 260 260 262 265 268 271 272 272 272 269 266 264 262 260 259 259 262 264 264 260 256 253
314 315 316 316 316 316 316 316 315 315 315 315 314 313 312 312 311 310 309 307 306 304 302 300 298 296 294 292 290 287 285 283 282 281 281 281 281 282 283 283 284 286 287 288 289 291 292 289 285 280 274 273 273 271 269 269 270 272 268 262 260 260 259 258 259 261 263 266 269 270 270 270 268 265 264 262 260 258 259 261 263 264 262 257 254
317 318 317 317 317 317 317 316 316 316 315 315 315 314 313 313 312 311 310 309 308 307 305 303 301 299 296 294 291 288 284 281 279 278 277 277 278 279 280 281 282 284 285 286 287 289 290 287 281 276 272 271 271 270 268 268 269 271 268 262 259 259 258 257 257 259 261 264 268 269 269 269 267 264 262 261 259 258 258 260 263 265 263 259 256
319 319 318 318 318 317 317 317 316 316 316 316 316 315 315 315 315 314 313 312 311 310 309 307 305 302 300 297 293 289 285 281 277 276 275 275 276 276 277 279 280 282 283 284 285 287 288 283 277 273 270 270 270 269 267 267 268 270 268 262 259 258 257 256 256 257 259 262 266 267 267 267 266 264 262 259 257 256 257 258 261 264 263 260 256
319 319 318 318 318 318 318 318 318 318 318 318 317 318 318 318 317 316 316 315 313 312 310 309 307 304 301 298 295 290 285 280 276 274 273 273 273 274 275 276 278 280 281 282 283 285 284 279 274 270 268 269 270 268 266 266 267 269 268 262 259 258 255 254 254 255 257 261 264 265 266 266 265 264 262 258 255 254 255 256 259 263 264 260 256
319 319 319 319 319 320 320 320 320 320 320 320 320 320 320 319 318 318 317 316 315 315 315 313 311 307 303 299 296 291 285 279 275 272 271 271 271 271 273 274 275 277 278 280 282 283 280 275 270 267 267 269 270 266 264 264 266 268 268 262 258 256 254 252 252 254 256 260 262 263 264 265 265 264 261 257 254 252 253 254 256 260 263 261 256
321 320 320 320 320 321 321 322 323 323 322 322 321 321 321 320 320 320 319 319 319 320 320 319 315 311 306 302 298 292 284 277 272 270 268 268 269 269 270 271 273 274 276 277 280 279 275 271 267 266 268 270 268 264 261 262 265 268 267 261 256 254 252 251 251 253 256 259 261 262 264 264 264 264 261 257 252 250 250 252 253 256 260 260 256
322 321 321 322 322 323 324 324 324 324 323 322 322 322 322 322 323 322 322 323 323 324 325 323 320 315 310 306 301 292 283 276 271 268 266 266 266 267 268 269 270 271 273 275 277 274 269 267 265 265 267 267 264 260 259 259 263 267 266 259 254 253 251 250 250 252 254 257 259 261 263 264 264 263 261 257 251 248 248 249 250 252 256 258 256
322 323 323 324 325 326 326 325 324 324 323 324 324 324 324 325 325 325 325 325 326 327 328 328 325 320 315 310 303 292 281 275 271 267 265 264 264 265 266 267 268 269 271 273 273 268 263 263 263 263 264 263 260 257 257 257 261 266 265 258 254 252 250 249 250 251 253 256 258 260 262 263 264 262 260 256 251 246 245 247 248 249 252 255 256
324 325 326 327 327 326 325 325 325 325 325 325 326 326 327 327 327 327 327 327 328 330 331 331 329 325 319 313 304 291 281 277 272 267 264 263 263 263 264 265 266 267 270 271 268 262 258 259 261 261 260 260 258 256 255 256 260 265 264 256 253 251 249 248 249 250 252 255 258 260 262 263 264 262 259 255 251 245 243 244 246 246 247 250 254
326 326 327 327 326 325 324 325 325 326 327 327 328 327 328 328 328 328 328 329 330 331 333 332 330 327 322 315 305 294 287 281 274 268 265 262 262 262 263 263 264 266 268 269 264 258 254 256 258 259 259 259 257 255 254 255 259 264 261 254 251 250 248 247 248 248 251 255 257 259 261 263 264 262 258 254 250 245 242 242 244 245 245 246 248
326 326 326 325 324 324 325 326 328 329 329 328 328 328 328 329 329 330 330 331 331 332 333 332 330 328 324 316 307 299 294 287 277 271 266 263 263 263 262 262 263 266 267 266 262 255 252 254 256 258 259 259 258 255 253 254 258 262 259 252 249 249 247 246 247 248 250 254 256 258 261 263 264 262 257 253 250 246 242 240 241 243 243 243 244
326 326 325 324 325 326 327 328 329 330 329 329 329 329 330 330 331 331 332 333 333 333 333 331 330 329 326 318 307 303 299 290 281 274 268 265 264 264 264 263 263 265 266 265 260 254 252 252 254 257 260 261 259 255 251 252 256 259 255 250 248 248 246 245 246 247 250 253 255 258 261 264 264 260 257 254 250 246 243 239 239 240 241 242 242
324 324 324 325 326 327 328 328 329 330 330 329 330 330 331 332 332 333 334 334 335 334 334 332 329 329 328 321 310 306 303 294 285 277 270 267 266 265 265 264 264 265 266 264 260 255 253 254 254 255 258 260 258 253 249 251 255 257 253 248 247 246 244 245 246 246 249 252 255 258 262 265 264 259 256 254 250 246 243 240 238 238 240 242 242
322 323 324 325 326 327 327 328 329 330 330 330 331 332 333 334 334 335 335 335 336 336 335 333 330 329 330 325 314 309 308 299 289 281 273 269 268 268 267 266 266 268 267 263 259 256 256 256 255 254 254 258 257 252 249 251 255 256 252 247 246 244 242 244 246 246 248 252 255 258 263 267 265 259 256 254 250 246 244 241 238 236 237 240 242
323 324 325 326 326 327 328 328 329 329 330 331 333 334 335 336 336 336 336 336 336 337 336 335 331 329 329 327 318 311 310 304 294 285 277 272 271 271 271 270 269 270 268 260 254 255 257 257 254 251 251 255 255 250 248 251 255 255 251 246 244 242 240 242 245 247 249 251 254 259 264 268 268 262 257 254 250 246 243 242 240 237 235 238 241
325 325 325 326 327 327 328 329 329 331 331 333 334 335 336 338 338 337 337 337 337 337 338 336 333 330 329 328 321 313 310 307 300 290 281 277 275 275 275 273 272 271 268 258 251 252 256 257 254 250 250 254 252 248 248 252 255 254 249 245 243 241 239 241 245 247 249 251 254 260 265 268 268 265 257 250 247 244 241 241 240 238 236 237 240
324 324 324 326 327 327 329 330 331 331 332 332 334 335 336 338 339 339 339 338 338 338 339 337 334 331 329 327 323 315 310 308 304 296 287 282 281 281 279 277 273 270 266 259 254 253 255 257 255 252 252 253 249 246 248 251 253 252 248 244 243 240 238 241 244 246 248 251 255 260 264 266 267 265 259 250 246 243 241 239 239 239 237 237 239
322 322 323 325 326 327 329 330 330 330 331 332 333 334 335 337 338 339 339 340 339 339 339 339 336 332 329 327 324 318 312 308 305 299 292 288 286 285 283 279 274 268 264 262 261 259 258 258 256 254 253 251 247 245 247 250 252 250 245 243 242 238 237 240 243 245 248 251 255 259 262 265 267 267 263 257 250 246 243 239 238 237 237 238 239
320 321 323 324 326 328 329 330 330 330 331 331 332 333 334 335 336 337 338 339 340 340 340 339 337 334 330 328 325 321 315 310 306 300 295 292 291 289 285 280 275 269 265 266 269 267 261 258 255 253 251 248 245 244 246 250 252 248 243 242 240 237 236 239 241 244 247 251 255 258 261 264 266 267 265 260 254 249 246 241 237 235 236 237 239
320 321 323 324 326 328 329 330 330 330 330 330 330 331 332 333 334 335 336 337 339 340 340 340 338 335 332 329 326 322 317 312 307 302 298 296 294 289 284 281 278 273 268 271 275 271 262 254 251 248 246 244 242 243 247 250 251 246 242 241 238 235 235 237 240 243 247 250 253 256 259 262 265 266 265 260 255 251 247 243 238 234 233 234 237
321 323 324 326 327 329 330 331 330 330 330 329 329 329 330 331 331 332 333 335 337 338 338 338 339 337 334 330 327 323 318 313 307 303 300 297 293 288 285 283 281 275 273 277 278 270 257 248 244 242 241 240 240 243 248 251 250 244 241 240 238 235 234 236 239 242 246 249 252 254 258 261 263 264 262 257 252 248 244 241 239 235 232 232 234
322 323 324 326 327 328 329 330 330 330 329 329 328 328 328 329 329 330 331 332 334 336 336 337 338 338 336 332 329 325 319 314 309 304 301 297 292 290 289 286 282 280 281 282 275 262 250 243 240 238 238 238 241 245 249 252 249 243 240 240 238 235 234 236 239 241 244 247 250 253 258 261 263 262 259 254 249 244 240 238 237 236 234 233 234
322 324 325 326 327 328 329 329 329 329 329 329 328 328 327 327 327 328 329 330 331 333 334 335 337 338 337 334 331 327 321 314 310 305 299 294 293 294 294 290 287 287 287 282 268 254 247 242 239 238 239 240 243 248 252 252 248 242 240 240 238 236 235 236 237 240 243 246 249 253 256 260 261 259 254 248 242 238 235 233 233 234 234 234 234
323 325 326 327 327 328 328 329 329 329 329 329 328 328 327 326 326 326 326 328 329 330 331 333 335 337 338 335 332 329 323 314 310 305 297 294 295 294 293 295 295 293 287 276 260 251 247 243 240 239 240 243 247 251 253 252 248 243 242 241 239 236 236 235 235 237 241 245 249 252 254 256 257 256 252 247 242 238 234 232 231 233 234 235 235
325 326 326 327 327 328 328 329 329 329 329 329 328 328 327 326 325 324 324 325 326 327 329 331 333 335 337 336 333 331 325 316 310 307 301 295 294 290 288 294 299 295 284 268 256 250 248 246 245 243 243 245 249 253 255 253 249 245 244 242 240 237 236 235 235 236 239 243 246 250 253 255 255 255 253 250 245 241 237 233 232 232 234 234 235
325 326 326 326 327 327 328 329 329 329 329 329 329 328 327 326 324 323 322 322 323 325 327 328 330 332 335 335 333 330 325 318 312 309 304 298 292 285 282 288 295 293 282 268 261 260 259 256 252 247 244 245 248 252 256 254 249 246 246 245 242 239 238 236 235 236 238 241 244 248 251 253 254 253 252 250 248 244 240 237 235 234 234 234 233
324 324 325 325 326 327 328 328 329 329 329 329 329 328 327 326 324 323 321 320 320 322 323 325 327 329 331 333 332 328 322 318 314 310 305 299 291 283 278 280 285 286 280 273 269 271 272 271 264 254 247 245 246 250 254 254 250 247 246 246 244 242 240 238 237 237 238 240 243 246 249 251 251 251 251 250 248 245 242 240 238 237 235 234 233